Morejarl — LLWD — position and weather

sailwx.info

Track history (hours):
 
Tides and Currents Weather Stations Pressure Air Temp Water Temp Dewpoint Dewpoint Depression Visibility Wind Speed Wind Dir Waves Ship Positions

Morejarl

Last reported at 2014-Oct-25 10:33 UTC. Time now 2014-Oct-25 11:11 UTC.
Position N 63°26' E 010°24'.

Length 35 m; draft 1.9 m.

Type: High speed craft. MMSI: 258561000.

Date/timePositionNaut miles runAvg speedWind from/ knotsBaromVisibWave heightAir tempDewpointWater temp
2014-Oct-25 10:33N 63°26' E 010°24'0 0.0
2014-Oct-25 09:33N 63°26' E 010°24'0 0.0
2014-Oct-25 08:33N 63°26' E 010°24'0 0.0
2014-Oct-25 07:33N 63°26' E 010°24'0 0.0
2014-Oct-25 06:33N 63°26' E 010°24'0 0.0
2014-Oct-25 05:33N 63°26' E 010°24'0 0.0
2014-Oct-25 04:33N 63°26' E 010°24'0 0.0
2014-Oct-25 03:33N 63°26' E 010°24'0 0.0
2014-Oct-25 02:33N 63°26' E 010°24'0 0.0
2014-Oct-25 01:33N 63°26' E 010°24'0 0.0
2014-Oct-25 00:33N 63°26' E 010°24'0 0.0
2014-Oct-24 23:33N 63°26' E 010°24'0 0.0
2014-Oct-24 22:33N 63°26' E 010°24'0 0.0
2014-Oct-24 21:33N 63°26' E 010°24'0 0.0
2014-Oct-24 20:33N 63°26' E 010°24'0 0.0
2014-Oct-24 19:33N 63°26' E 010°24'0 0.0
2014-Oct-24 18:33N 63°26' E 010°24'0 0.0
2014-Oct-24 17:33N 63°26' E 010°24'0 0.0
2014-Oct-24 16:33N 63°26' E 010°24'0 0.0
2014-Oct-24 15:33N 63°26' E 010°24'0 0.0
2014-Oct-24 14:33N 63°26' E 010°24'4 3.9
2014-Oct-24 13:33N 63°28' E 010°16'2017.4
2014-Oct-24 12:23N 63°41' E 009°41'8 1.7
2014-Oct-24 07:32N 63°36' E 009°27'1718.0
2014-Oct-24 06:33N 63°29' E 010°03'10 9.7
2014-Oct-24 05:33N 63°26' E 010°24'1817.5
2014-Oct-24 04:33N 63°35' E 009°49'8 1.2
2014-Oct-23 22:16N 63°41' E 009°40'0 0.0
2014-Oct-23 21:31N 63°41' E 009°40'0 0.0
2014-Oct-23 20:08N 63°41' E 009°40'1220.4
2014-Oct-23 19:33N 63°30' E 009°50'1615.7
2014-Oct-23 18:33N 63°26' E 010°24'1313.1
2014-Oct-23 17:33N 63°30' E 009°56'13 2.1
2014-Oct-23 11:23N 63°37' E 009°32'1821.7
2014-Oct-23 10:33N 63°28' E 010°07'8 7.9
2014-Oct-23 09:33N 63°26' E 010°24'2422.9
2014-Oct-23 08:29N 63°41' E 009°40'8 0.5
2014-Oct-22 16:06N 63°36' E 009°26'917.2
2014-Oct-22 15:33N 63°36' E 009°47'1919.2
2014-Oct-22 14:33N 63°26' E 010°24'0 0.1
2014-Oct-22 13:33N 63°26' E 010°24'2423.7
2014-Oct-22 12:32N 63°41' E 009°40'9 1.8
2014-Oct-22 07:32N 63°35' E 009°26'1616.7
2014-Oct-22 06:33N 63°29' E 009°59'1111.4
2014-Oct-22 05:33N 63°26' E 010°24'1717.3
2014-Oct-22 04:33N 63°34' E 009°49'8 7.4
2014-Oct-22 03:27N 63°41' E 009°40'0 0.0
2014-Oct-22 02:30N 63°41' E 009°40'0 0.0
2014-Oct-21 23:27N 63°41' E 009°40'0 0.0
2014-Oct-21 22:32N 63°41' E 009°40'0 0.0
2014-Oct-21 21:33N 63°41' E 009°40'0 0.0
2014-Oct-21 20:30N 63°41' E 009°40'1212.5
2014-Oct-21 19:33N 63°30' E 009°50'1615.7
2014-Oct-21 18:33N 63°26' E 010°24'1414.5
2014-Oct-21 17:33N 63°30' E 009°53'13 2.1
2014-Oct-21 11:29N 63°35' E 009°26'1920.9
2014-Oct-21 10:33N 63°28' E 010°06'8 8.1
2014-Oct-21 09:33N 63°26' E 010°24'2423.4
2014-Oct-21 08:31N 63°41' E 009°40'0 0.0
2014-Oct-20 15:33N 63°41' E 009°40'2424.4
2014-Oct-20 14:33N 63°26' E 010°23'0 0.5
2014-Oct-20 13:33N 63°27' E 010°22'2323.3
2014-Oct-20 12:33N 63°41' E 009°40'6 1.1
2014-Oct-20 07:23N 63°37' E 009°31'1416.9
2014-Oct-20 06:34N 63°30' E 009°57'1212.3
2014-Oct-20 05:33N 63°26' E 010°24'1717.4
2014-Oct-20 04:34N 63°34' E 009°49'8 0.9
2014-Oct-19 19:28N 63°41' E 009°40'2426.5
2014-Oct-19 18:33N 63°26' E 010°23'8 8.2
2014-Oct-19 17:34N 63°29' E 010°05'1717.3
2014-Oct-19 16:33N 63°37' E 009°31'2 0.5
2014-Oct-19 11:28N 63°36' E 009°27'1718.5
2014-Oct-19 10:33N 63°29' E 010°01'1010.3
2014-Oct-19 09:34N 63°26' E 010°24'2423.7
2014-Oct-19 08:33N 63°41' E 009°41'1 0.0
2014-Oct-18 20:21N 63°41' E 009°40'2430.3
2014-Oct-18 19:34N 63°26' E 010°22'1 0.7
2014-Oct-18 18:34N 63°26' E 010°24'0 0.0
2014-Oct-18 17:34N 63°26' E 010°24'0 0.0
2014-Oct-18 16:34N 63°26' E 010°24'1010.0
2014-Oct-18 15:34N 63°29' E 010°02'16 0.7
2014-Oct-17 15:29N 63°41' E 009°40'2425.9
2014-Oct-17 14:34N 63°26' E 010°23'1 0.6
2014-Oct-17 13:34N 63°26' E 010°24'0 0.0
2014-Oct-17 12:34N 63°26' E 010°24'2625.1
2014-Oct-17 11:32N 63°38' E 009°32'  
Track history (hours):
 
Tides and Currents Weather Stations Pressure Air Temp Water Temp Dewpoint Dewpoint Depression Visibility Wind Speed Wind Dir Waves Ship Positions

Morejarl

Last reported at 2014-Oct-25 10:33 UTC. Time now 2014-Oct-25 11:11 UTC.
Position N 63°26' E 010°24'.

Length 35 m; draft 1.9 m.

Type: High speed craft. MMSI: 258561000.

Date/timePositionNaut miles runAvg speedWind from/ knotsBaromVisibWave heightAir tempDewpointWater temp
2014-Oct-25 10:33N 63°26' E 010°24'0 0.0
2014-Oct-25 09:33N 63°26' E 010°24'0 0.0
2014-Oct-25 08:33N 63°26' E 010°24'0 0.0
2014-Oct-25 07:33N 63°26' E 010°24'0 0.0
2014-Oct-25 06:33N 63°26' E 010°24'0 0.0
2014-Oct-25 05:33N 63°26' E 010°24'0 0.0
2014-Oct-25 04:33N 63°26' E 010°24'0 0.0
2014-Oct-25 03:33N 63°26' E 010°24'0 0.0
2014-Oct-25 02:33N 63°26' E 010°24'0 0.0
2014-Oct-25 01:33N 63°26' E 010°24'0 0.0
2014-Oct-25 00:33N 63°26' E 010°24'0 0.0
2014-Oct-24 23:33N 63°26' E 010°24'0 0.0
2014-Oct-24 22:33N 63°26' E 010°24'0 0.0
2014-Oct-24 21:33N 63°26' E 010°24'0 0.0
2014-Oct-24 20:33N 63°26' E 010°24'0 0.0
2014-Oct-24 19:33N 63°26' E 010°24'0 0.0
2014-Oct-24 18:33N 63°26' E 010°24'0 0.0
2014-Oct-24 17:33N 63°26' E 010°24'0 0.0
2014-Oct-24 16:33N 63°26' E 010°24'0 0.0
2014-Oct-24 15:33N 63°26' E 010°24'0 0.0
2014-Oct-24 14:33N 63°26' E 010°24'4 3.9
2014-Oct-24 13:33N 63°28' E 010°16'2017.4
2014-Oct-24 12:23N 63°41' E 009°41'8 1.7
2014-Oct-24 07:32N 63°36' E 009°27'1718.0
2014-Oct-24 06:33N 63°29' E 010°03'10 9.7
2014-Oct-24 05:33N 63°26' E 010°24'1817.5
2014-Oct-24 04:33N 63°35' E 009°49'8 1.2
2014-Oct-23 22:16N 63°41' E 009°40'0 0.0
2014-Oct-23 21:31N 63°41' E 009°40'0 0.0
2014-Oct-23 20:08N 63°41' E 009°40'1220.4
2014-Oct-23 19:33N 63°30' E 009°50'1615.7
2014-Oct-23 18:33N 63°26' E 010°24'1313.1
2014-Oct-23 17:33N 63°30' E 009°56'13 2.1
2014-Oct-23 11:23N 63°37' E 009°32'1821.7
2014-Oct-23 10:33N 63°28' E 010°07'8 7.9
2014-Oct-23 09:33N 63°26' E 010°24'2422.9
2014-Oct-23 08:29N 63°41' E 009°40'8 0.5
2014-Oct-22 16:06N 63°36' E 009°26'917.2
2014-Oct-22 15:33N 63°36' E 009°47'1919.2
2014-Oct-22 14:33N 63°26' E 010°24'0 0.1
2014-Oct-22 13:33N 63°26' E 010°24'2423.7
2014-Oct-22 12:32N 63°41' E 009°40'9 1.8
2014-Oct-22 07:32N 63°35' E 009°26'1616.7
2014-Oct-22 06:33N 63°29' E 009°59'1111.4
2014-Oct-22 05:33N 63°26' E 010°24'1717.3
2014-Oct-22 04:33N 63°34' E 009°49'8 7.4
2014-Oct-22 03:27N 63°41' E 009°40'0 0.0
2014-Oct-22 02:30N 63°41' E 009°40'0 0.0
2014-Oct-21 23:27N 63°41' E 009°40'0 0.0
2014-Oct-21 22:32N 63°41' E 009°40'0 0.0
2014-Oct-21 21:33N 63°41' E 009°40'0 0.0
2014-Oct-21 20:30N 63°41' E 009°40'1212.5
2014-Oct-21 19:33N 63°30' E 009°50'1615.7
2014-Oct-21 18:33N 63°26' E 010°24'1414.5
2014-Oct-21 17:33N 63°30' E 009°53'13 2.1
2014-Oct-21 11:29N 63°35' E 009°26'1920.9
2014-Oct-21 10:33N 63°28' E 010°06'8 8.1
2014-Oct-21 09:33N 63°26' E 010°24'2423.4
2014-Oct-21 08:31N 63°41' E 009°40'0 0.0
2014-Oct-20 15:33N 63°41' E 009°40'2424.4
2014-Oct-20 14:33N 63°26' E 010°23'0 0.5
2014-Oct-20 13:33N 63°27' E 010°22'2323.3
2014-Oct-20 12:33N 63°41' E 009°40'6 1.1
2014-Oct-20 07:23N 63°37' E 009°31'1416.9
2014-Oct-20 06:34N 63°30' E 009°57'1212.3
2014-Oct-20 05:33N 63°26' E 010°24'1717.4
2014-Oct-20 04:34N 63°34' E 009°49'8 0.9
2014-Oct-19 19:28N 63°41' E 009°40'2426.5
2014-Oct-19 18:33N 63°26' E 010°23'8 8.2
2014-Oct-19 17:34N 63°29' E 010°05'1717.3
2014-Oct-19 16:33N 63°37' E 009°31'2 0.5
2014-Oct-19 11:28N 63°36' E 009°27'1718.5
2014-Oct-19 10:33N 63°29' E 010°01'1010.3
2014-Oct-19 09:34N 63°26' E 010°24'2423.7
2014-Oct-19 08:33N 63°41' E 009°41'1 0.0
2014-Oct-18 20:21N 63°41' E 009°40'2430.3
2014-Oct-18 19:34N 63°26' E 010°22'1 0.7
2014-Oct-18 18:34N 63°26' E 010°24'0 0.0
2014-Oct-18 17:34N 63°26' E 010°24'0 0.0
2014-Oct-18 16:34N 63°26' E 010°24'1010.0
2014-Oct-18 15:34N 63°29' E 010°02'16 0.7
2014-Oct-17 15:29N 63°41' E 009°40'2425.9
2014-Oct-17 14:34N 63°26' E 010°23'1 0.6
2014-Oct-17 13:34N 63°26' E 010°24'0 0.0
2014-Oct-17 12:34N 63°26' E 010°24'2625.1
2014-Oct-17 11:32N 63°38' E 009°32'  

Dump ship's entire track history